This is the latest recevied weather packets stored in our database for station/object W9QL-13. If no packets are shown the sender has not sent any weather packets the latest 10 day(s).
| Time | Temp. | Humidity | Pressure | Rain* | Wind** | Luminosity | Snow |
|---|---|---|---|---|---|---|---|
| 1778175194 | 13.33° C | 39% | 1011.2 hPa | 0 mm | - | - | - |
| 1778174864 | 13.89° C | 39% | 1011.2 hPa | 0 mm | - | - | - |
| 1778174567 | 13.89° C | 39% | 1011.2 hPa | 0 mm | - | - | - |
| 1778174234 | 13.89° C | 38% | 1011.3 hPa | 0 mm | - | - | - |
| 1778173934 | 13.89° C | 40% | 1011.2 hPa | 0 mm | - | - | - |
| 1778173604 | 13.89° C | 39% | 1011.4 hPa | 0 mm | - | - | - |
| 1778173274 | 14.44° C | 39% | 1011.5 hPa | 0 mm | - | - | - |
| 1778172944 | 14.44° C | 36% | 1011.6 hPa | 0 mm | - | - | - |
| 1778172644 | 15° C | 37% | 1011.7 hPa | 0 mm | - | - | - |
| 1778172314 | 15.56° C | 36% | 1011.8 hPa | 0 mm | - | - | - |
| 1778172014 | 15° C | 37% | 1011.7 hPa | 0 mm | - | - | - |
| 1778171685 | 14.44° C | 40% | 1011.9 hPa | 0 mm | - | - | - |
| 1778171354 | 13.89° C | 40% | 1011.9 hPa | 0 mm | - | - | - |
| 1778171054 | 14.44° C | 36% | 1012 hPa | 0 mm | - | - | - |
| 1778170754 | 14.44° C | 37% | 1012.1 hPa | 0 mm | - | - | - |
| 1778170424 | 14.44° C | 38% | 1012.2 hPa | 0 mm | - | - | - |
| 1778170124 | 14.44° C | 39% | 1012.3 hPa | 0 mm | - | - | - |
| 1778169824 | 14.44° C | 36% | 1012.4 hPa | 0 mm | - | - | - |
| 1778169494 | 14.44° C | 40% | 1012.6 hPa | 0 mm | - | - | - |
| 1778169194 | 13.89° C | 39% | 1012.7 hPa | 0 mm | - | - | - |
| 1778168894 | 13.89° C | 42% | 1012.8 hPa | 0 mm | - | - | - |
| 1778168594 | 13.33° C | 41% | 1012.9 hPa | 0 mm | - | - | - |
| 1778168264 | 12.78° C | 42% | 1013 hPa | 0 mm | - | - | - |
| 1778167934 | 12.78° C | 41% | 1013.1 hPa | 0 mm | - | - | - |
| 1778167604 | 12.22° C | 40% | 1013.2 hPa | 0 mm | - | - | - |
* Rain latest hour (hover to see other rain measurements)
** Current wind speed in m/s (hover to see current wind gust speed)